Regional Weather Roundup
Issued by NWS Mt. Holly, NJ

Home | Current Version | Previous Version | Text Only | Print | Product List | Glossary On
Versions: 1 2 3 4 5 6 7 8 9 10 11 12 13 14 15 16 17 18 19 20 21 22 23 24 25 26 27
000
ASUS41 KPHI 220311
RWRPHI

REGIONAL WEATHER ROUNDUP
NATIONAL WEATHER SERVICE MOUNT HOLLY NJ
1000 PM EST SAT JAN 21 2017

NOTE:  "FAIR" INDICATES FEW OR NO CLOUDS BELOW 12,000 FEET WITH NO
SIGNIFICANT WEATHER AND/OR OBSTRUCTIONS TO VISIBILITY.

 * = STATION DOES NOT REPORT PRECIPITATION (E.G. RAIN, SNOW, ETC.)
        OR FOG.

NJZ015>026-220400-
SOUTHERN NEW JERSEY

CITY           SKY/WX    TMP DP  RH WIND       PRES   REMARKS
POMONA         FOG       46  45  96 CALM      29.82R VSB 1/4
WILDWOOD*      FOG       43  43 100 CALM      29.83R VSB 1/4
MILLVILLE      FOG       45  45 100 CALM      29.83R VSB 1/4
WRIGHTSTOWN    FOG       45  45 100 CALM      29.79S VSB 1/2
MOUNT HOLLY    FOG       45  44  97 CALM      29.82S VSB 1/4
TRENTON        FOG       45  45 100 CALM      29.81R VSB 1/2

$$
NJZ001>014-220400-
NORTHERN NEW JERSEY

CITY           SKY/WX    TMP DP  RH WIND       PRES   REMARKS
SUSSEX         FOG       43  43 100 CALM      29.80R VSB 1/2
ANDOVER*         N/A     42  42 100 CALM      29.80R
MORRISTOWN     CLOUDY    45  45 100 SW6       29.81R FOG
NEWARK         FOG       45  44  97 SW9       29.81R VSB 1
TETERBORO      CLOUDY    47  45  93 S3        29.80R FOG
CALDWELL       FOG       45  44  97 SW3       29.81R VSB 1/2
SOMERVILLE     CLOUDY    45  44  97 CALM      29.79R FOG
ALLAIRE*       FOG       44  44 100 W3        29.83R VSB 1/2
TOMS RIVER*    FOG       45  45 100 CALM      29.82S VSB 3/4

$$
PAZ043-044-047-054-055-060>062-066>071-220400-
EASTERN PENNSYLVANIA

CITY           SKY/WX    TMP DP  RH WIND       PRES   REMARKS
PHILADELPHIA   FOG       46  45  96 CALM      29.82S VSB 3/4
NORTH PHILA    FOG       47  46  97 CALM      29.83S VSB 1/4
BLUE BELL*     CLOUDY    43  43 100 CALM      29.80S VSB 1/2
DOYLESTOWN     FOG       45  45 100 CALM      29.80S VSB 1
QUAKERTOWN*    CLOUDY    45  45 100 CALM      29.81S VSB 1/2
PERKASIE*      FOG       43  43 100 CALM      29.81S VSB 1/2
POTTSTOWN      FOG       44  44 100 CALM      29.82S VSB 1/2
LANCASTER      FOG       45  45 100 S3        29.81S VSB 3/4
COATESVILLE    FOG       43  43 100 NW3       29.82S VSB<1/4
READING        FOG       44  44 100 CALM      29.80S VSB 1/2
ALLENTOWN      FOG       43  41  93 CALM      29.80S VSB 1/4
MOUNT POCONO   PTCLDY    37  37 100 NW3       29.76S FOG
HAZLETON       CLOUDY    37  37 100 CALM      29.79F FOG
LEHIGHTON      FOG       43  43 100 CALM      29.81S VSB 1/2
WILKES BARRE   FOG       42  42 100 CALM      29.78S VSB 1/2

$$
DEZALL-MDZ008-012-015-019-020-220400-
DELAWARE AND EASTERN MARYLAND

CITY           SKY/WX    TMP DP  RH WIND       PRES   REMARKS
WILMINGTON     FOG       45  45 100 CALM      29.83R VSB 1/2
DOVER          FOG       45 N/A N/A CALM      29.81S VSB 1/2
GEORGETOWN     CLOUDY    49  48  97 E3        29.81S FOG
EASTON         CLOUDY    48  46  93 CALM      29.84F
PATUXENT       FOG       43  43 100 SE3       29.79F VSB 1/2
OCEAN CITY     FOG       43  43 100 CALM      29.81S VSB 1
WALLOPS ISLAND FOG       45  45 100 CALM      29.80F VSB 1/4
CAMBRIDGE      CLOUDY    45  45 100 CALM      29.79F
SALISBURY      CLOUDY    47  47 100 E5        29.80S

$$
PAZ001-021-NYZ056-072-MDZ011-DCZ001-220400-
OTHER NEARBY LOCATIONS

CITY           SKY/WX    TMP DP  RH WIND       PRES   REMARKS
HARRISBURG     DRZL/FOG  44  44 100 CALM      29.80F VSB 1/2
WILLIAMSPORT   CLOUDY    43  41  93 CALM      29.79S
BINGHAMTON     CLOUDY    43  43 100 S5        29.75S FOG
NEW YORK CITY  CLOUDY    44  44 100 W7        29.82R FOG
BALTIMORE      FOG       45  45 100 NE5       29.79F VSB 1
WASHINGTON DC  CLOUDY    48  48 100 E5        29.80F FOG

$$




USA.gov is the U.S. government's official web portal to all federal, state and local government web resources and services.